Weather History for Marion, SC

Change the Weather History Date:

Tuesday, September 10, 2013

  Actual Average (KFLO) Record (KFLO)
Temperature  
Mean Temperature 76 °F 76 °F  
Max Temperature 87 °F 86 °F 96 °F (1983)
Min Temperature 66 °F 66 °F 48 °F (1956)
Degree Days  
Heating Degree Days 0 0  
Month to date heating degree days 0  
Since 1 July heating degree days 0  
Cooling Degree Days 12 11  
Month to date cooling degree days 121  
Year to date cooling degree days 1791  
Growing Degree Days 26 (Base 50)    
Moisture  
Dew Point 67 °F    
Average Humidity 78    
Maximum Humidity 100    
Minimum Humidity 43    
Precipitation  
Precipitation 0.00 in 0.12 in 1.48 in (1978)
Month to date precipitation 1.33  
Year to date precipitation 31.81  
Sea Level Pressure  
Sea Level Pressure 30.19 in    
Wind  
Wind Speed 1 mph (ENE)    
Max Wind Speed 7 mph    
Max Gust Speed -    
Visibility 8 miles    
Events      
T = Trace of Precipitation, MM = Missing Value Source: NWS Daily Summary

Daily Weather History Graph

Daily Weather History Graph

Search for Another Location

Airport:

Trip Planner

Search our weather history database for the weather conditions in past years. The results will help you decide how hot, cold, wet, or windy it might be!

Date:

Astronomy

Sep. 10, 2013 Rise Set
Actual Time 6:57 AM EDT 7:30 PM EDT
Civil Twilight 6:31 AM EDT 7:55 PM EDT
Nautical Twilight 6:02 AM EDT 8:25 PM EDT
Astronomical Twilight 5:31 AM EDT 8:55 PM EDT
Moon 12:05 PM EDT (9/10) 10:48 PM EDT (9/10)
Length of Visible Light 13h 23m
Length of Day
12h 33m
Waxing Crescent, 28% of the Moon is Illuminated
Sep 10
Waxing Crescent
Sep 12
First Quarter
Sep 19
Full
Sep 26
Last Quarter
Oct 4
New

Hourly Weather History & Observations

Time (EDT) Temp. Heat Index Dew Point Humidity Pressure Visibility Wind Dir Wind Speed Gust Speed Precip Events Conditions
12:15 AM 71.6 °F - 69.8 °F 94% 30.15 in 10.0 mi Calm Calm - N/A   Clear
12:35 AM 69.8 °F - 69.8 °F 100% 30.16 in 7.0 mi Calm Calm - N/A   Clear
12:55 AM 69.8 °F - 69.8 °F 100% 30.16 in 7.0 mi Calm Calm - N/A   Clear
1:15 AM 69.8 °F - 69.8 °F 100% 30.16 in 5.0 mi Calm Calm - N/A   Clear
1:35 AM 69.8 °F - 68.0 °F 94% 30.16 in 5.0 mi Calm Calm - N/A   Clear
1:55 AM 69.8 °F - 69.8 °F 100% 30.16 in 7.0 mi Calm Calm - N/A   Clear
2:15 AM 68.0 °F - 68.0 °F 100% 30.16 in 5.0 mi Calm Calm - N/A   Clear
2:35 AM 68.0 °F - 68.0 °F 100% 30.17 in 7.0 mi Calm Calm - N/A   Clear
2:55 AM 68.0 °F - 68.0 °F 100% 30.17 in 4.0 mi Calm Calm - N/A   Clear
3:15 AM 68.0 °F - 68.0 °F 100% 30.17 in 5.0 mi Calm Calm - N/A   Clear
3:35 AM 68.0 °F - 68.0 °F 100% 30.16 in 4.0 mi Calm Calm - N/A   Clear
3:55 AM 68.0 °F - 68.0 °F 100% 30.16 in 5.0 mi Calm Calm - N/A   Clear
4:15 AM 68.0 °F - 68.0 °F 100% 30.17 in 3.0 mi Calm Calm - N/A   Clear
4:35 AM 68.0 °F - 68.0 °F 100% 30.17 in 4.0 mi Calm Calm - N/A   Clear
4:55 AM 68.0 °F - 68.0 °F 100% 30.17 in 3.0 mi Calm Calm - N/A   Clear
5:15 AM 68.0 °F - 68.0 °F 100% 30.18 in 2.0 mi Calm Calm - N/A   Clear
5:35 AM 68.0 °F - 68.0 °F 100% 30.18 in 1.2 mi Calm Calm - N/A   Mist
5:55 AM 68.0 °F - 68.0 °F 100% 30.18 in 4.0 mi Calm Calm - N/A   Clear
6:15 AM 68.0 °F - 68.0 °F 100% 30.19 in 3.0 mi Calm Calm - N/A   Clear
6:35 AM 66.2 °F - 66.2 °F 100% 30.19 in 2.5 mi Calm Calm - N/A   Clear
6:55 AM 68.0 °F - 68.0 °F 100% 30.20 in 4.0 mi Calm Calm - N/A   Clear
7:15 AM 68.0 °F - 68.0 °F 100% 30.20 in 2.5 mi Calm Calm - N/A   Clear
7:35 AM 68.0 °F - 68.0 °F 100% 30.20 in 3.0 mi Calm Calm - N/A   Clear
7:55 AM 69.8 °F - 69.8 °F 100% 30.21 in 3.0 mi Calm Calm - N/A   Clear
8:15 AM 69.8 °F - 69.8 °F 100% 30.21 in 5.0 mi Calm Calm - N/A   Clear
8:35 AM 71.6 °F - 71.6 °F 100% 30.22 in 7.0 mi Calm Calm - N/A   Clear
8:55 AM 73.4 °F - 71.6 °F 94% 30.23 in 7.0 mi Calm Calm - N/A   Clear
9:15 AM 75.2 °F - 73.4 °F 94% 30.23 in 10.0 mi NE 3.5 mph - N/A   Clear
9:35 AM 78.8 °F - 73.4 °F 83% 30.23 in 10.0 mi ENE 4.6 mph - N/A   Clear
9:55 AM 78.8 °F - 73.4 °F 83% 30.24 in 10.0 mi NNE 4.6 mph - N/A   Clear
10:15 AM 80.6 °F 83.9 °F 69.8 °F 70% 30.24 in 10.0 mi NE 5.8 mph - N/A   Clear
10:35 AM 80.6 °F 83.9 °F 69.8 °F 70% 30.24 in 10.0 mi NNW 5.8 mph - N/A   Clear
10:55 AM 80.6 °F 83.9 °F 69.8 °F 70% 30.24 in 10.0 mi North 4.6 mph - N/A   Clear
11:15 AM 82.4 °F 85.4 °F 68.0 °F 62% 30.24 in 10.0 mi NNW 3.5 mph - N/A   Clear
11:35 AM 82.4 °F 85.4 °F 68.0 °F 62% 30.23 in 10.0 mi Calm Calm - N/A   Clear
11:55 AM 84.2 °F 87.3 °F 68.0 °F 58% 30.23 in 10.0 mi ENE 4.6 mph - N/A   Clear
12:15 PM 86.0 °F 89.4 °F 68.0 °F 55% 30.23 in 10.0 mi Calm Calm - N/A   Clear
12:35 PM 86.0 °F 88.2 °F 66.2 °F 51% 30.22 in 10.0 mi East 3.5 mph - N/A   Clear
12:55 PM 86.0 °F 87.3 °F 64.4 °F 48% 30.22 in 10.0 mi East 3.5 mph - N/A   Scattered Clouds
1:15 PM 86.0 °F 87.3 °F 64.4 °F 48% 30.22 in 10.0 mi Calm Calm - N/A   Scattered Clouds
1:35 PM 87.8 °F 88.5 °F 62.6 °F 43% 30.22 in 10.0 mi East 5.8 mph - N/A   Clear
1:55 PM 87.8 °F 89.4 °F 64.4 °F 46% 30.21 in 10.0 mi NNE 3.5 mph - N/A   Scattered Clouds
2:15 PM 87.8 °F 89.4 °F 64.4 °F 46% 30.21 in 10.0 mi SE 4.6 mph - N/A   Scattered Clouds
2:35 PM 87.8 °F 89.4 °F 64.4 °F 46% 30.20 in 10.0 mi North 3.5 mph - N/A   Scattered Clouds
2:55 PM 87.8 °F 89.4 °F 64.4 °F 46% 30.20 in 10.0 mi East 6.9 mph - N/A   Scattered Clouds
3:15 PM 87.8 °F 89.4 °F 64.4 °F 46% 30.19 in 10.0 mi NNE 6.9 mph - N/A   Mostly Cloudy
3:35 PM 87.8 °F 89.4 °F 64.4 °F 46% 30.18 in 10.0 mi ENE 5.8 mph - N/A   Scattered Clouds
3:55 PM 87.8 °F 89.4 °F 64.4 °F 46% 30.17 in 10.0 mi NNE 5.8 mph - N/A   Scattered Clouds
4:15 PM 87.8 °F 88.5 °F 62.6 °F 43% 30.17 in 10.0 mi ESE 5.8 mph - N/A   Scattered Clouds
4:35 PM 87.8 °F 88.5 °F 62.6 °F 43% 30.17 in 10.0 mi East 5.8 mph - N/A   Mostly Cloudy
4:55 PM 87.8 °F 89.4 °F 64.4 °F 46% 30.16 in 10.0 mi East 3.5 mph - N/A   Scattered Clouds
5:15 PM 87.8 °F 88.5 °F 62.6 °F 43% 30.16 in 10.0 mi East 6.9 mph - N/A   Clear
5:35 PM 87.8 °F 88.5 °F 62.6 °F 43% 30.16 in 10.0 mi ESE 4.6 mph - N/A   Clear
5:55 PM 87.8 °F 88.5 °F 62.6 °F 43% 30.16 in 10.0 mi East 4.6 mph - N/A   Scattered Clouds
6:15 PM 84.2 °F 86.6 °F 66.2 °F 55% 30.17 in 10.0 mi SE 6.9 mph - N/A   Scattered Clouds
6:55 PM 80.6 °F 83.2 °F 68.0 °F 65% 30.17 in 10.0 mi SSE 5.8 mph - N/A   Clear
7:15 PM 78.8 °F - 68.0 °F 69% 30.17 in 10.0 mi SSE 4.6 mph - N/A   Clear
7:35 PM 78.8 °F - 68.0 °F 69% 30.17 in 10.0 mi SSE 4.6 mph - N/A   Clear
7:55 PM 77.0 °F - 66.2 °F 69% 30.18 in 10.0 mi SSE 4.6 mph - N/A   Clear
8:15 PM 77.0 °F - 68.0 °F 74% 30.18 in 10.0 mi Calm Calm - N/A   Clear
8:35 PM 73.4 °F - 68.0 °F 83% 30.18 in 10.0 mi Calm Calm - N/A   Clear
8:55 PM 73.4 °F - 68.0 °F 83% 30.19 in 10.0 mi Calm Calm - N/A   Clear
9:15 PM 71.6 °F - 68.0 °F 88% 30.20 in 10.0 mi SSE 4.6 mph - N/A   Clear
9:35 PM 73.4 °F - 66.2 °F 78% 30.20 in 10.0 mi Calm Calm - N/A   Clear
9:55 PM 71.6 °F - 68.0 °F 88% 30.21 in 10.0 mi Calm Calm - N/A   Clear
10:15 PM 71.6 °F - 68.0 °F 88% 30.21 in 10.0 mi Calm Calm - N/A   Clear
10:35 PM 69.8 °F - 68.0 °F 94% 30.22 in 10.0 mi Calm Calm - N/A   Clear
10:55 PM 69.8 °F - 68.0 °F 94% 30.22 in 7.0 mi Calm Calm - N/A   Clear
11:35 PM 69.8 °F - 68.0 °F 94% 30.22 in 7.0 mi Calm Calm - N/A   Clear
11:55 PM 69.8 °F - 68.0 °F 94% 30.22 in 7.0 mi Calm Calm - N/A   Clear